Regional Weather Roundup
Issued by NWS

Home | Current Version | Previous Version | Graphics & Text | Print | Product List | Glossary On
Versions: 1 2 3 4 5 6 7 8 9 10 11 12 13 14 15 16 17 18 19 20 21 22 23 24 25 26 27 28 29 30 31 32 33 34 35 36 37 38 39 40 41 42 43 44 45 46 47 48 49 50
000
ASUS43 KOAX 192010
RWRNE

WEATHER ROUNDUP FOR NEBRASKA
NATIONAL WEATHER SERVICE OMAHA NE
300 PM CDT SUN OCT 19 2014

NOTES: SATELLITE DATA IS BEING USED TO AUGMENT CLOUD COVER ABOVE
       12000 FEET.
       "FAIR" INDICATES FEW OR NO CLOUDS BELOW 12,000 FEET WITH NO
       SIGNIFICANT WEATHER AND/OR OBSTRUCTIONS TO VISIBILITY.

  * THESE STATIONS DO NOT REPORT WEATHER SUCH AS RAIN...SNOW OR FOG.

NEZ001>004-019>022-054>056-192100-
NEBRASKA PANHANDLE

CITY           SKY/WX    TMP DP  RH WIND       PRES   REMARKS
SCOTTSBLUFF    SUNNY     73  45  36 W6        30.06F
ALLIANCE       SUNNY     74  36  25 N5        30.05F
CHADRON        SUNNY     72  41  32 E3        30.04F
KIMBALL        SUNNY     71  34  25 E5        30.08F
SIDNEY         SUNNY     73  37  27 E8        30.07F
$$

NEZ057>060-069>072-079>082-192100-
SOUTHWEST NEBRASKA

CITY           SKY/WX    TMP DP  RH WIND       PRES   REMARKS
NORTH PLATTE   SUNNY     73  45  36 S5        29.99F
IMPERIAL       SUNNY     76  41  28 NE8       30.00F
LEXINGTON      SUNNY     70  48  44 NW3       29.98F
MCCOOK         SUNNY     70  47  43 VRB3      29.99F
OGALLALA       SUNNY     78  42  27 NE6       30.00F
$$

NEZ005>010-023>029-035>040-094-192100-
NORTH CENTRAL NEBRASKA

CITY           SKY/WX    TMP DP  RH WIND       PRES   REMARKS
VALENTINE      SUNNY     79  36  21 N9        29.98F
AINSWORTH      SUNNY     76  38  25 N8        29.98F
BROKEN BOW     SUNNY     76  47  35 NE8       29.97F
O`NEILL        SUNNY     76  42  29 N7        29.95F
ORD            SUNNY     72  45  37 SW8       29.95F
THEDFORD       SUNNY     77  40  26 N7        30.00F
$$

NEZ041-046>049-061>064-073>077-083>087-192100-
SOUTH CENTRAL NEBRASKA

CITY           SKY/WX    TMP DP  RH WIND       PRES   REMARKS
GRAND ISLAND   MOSUNNY   72  48  42 W14       29.97F
AURORA         SUNNY     72  42  33 SW9G17    29.96F
HASTINGS       SUNNY     70  43  37 S10       29.98F
HEBRON         SUNNY     70  44  38 SW13G20   29.99F
HOLDREGE       SUNNY     69  46  43 CALM      29.99F
KEARNEY *      SUNNY     70  46  43 S9        29.99F
YORK           SUNNY     72  45  37 SW14G21   29.97F
$$

NEZ011>018-030>034-042>045-192100-
NORTHEAST NEBRASKA

CITY           SKY/WX    TMP DP  RH WIND       PRES   REMARKS
NORFOLK        SUNNY     73  47  39 W10       29.93F
ALBION         SUNNY     71  46  40 W7        29.95F
BLAIR          PTSUNNY   72  46  39 SW15G22   29.95F
COLUMBUS *     MOSUNNY   72  46  40 SW12      29.96F
FREMONT        MOSUNNY   73  46  38 SW15      29.94F
TEKAMAH        MOSUNNY   73  46  38 SW20      29.93F
WAYNE          SUNNY     73  46  39 W9        29.93F
$$

NEZ050>053-065>068-078-088>093-192100-
SOUTHEAST NEBRASKA

CITY           SKY/WX    TMP DP  RH WIND       PRES   REMARKS
LINCOLN        MOSUNNY   71  46  40 SW14      29.97F
OMAHA EPPLEY   PTSUNNY   71  45  39 SW14      29.96F
BEATRICE       SUNNY     71  48  44 SW13      29.99F
FALLS CITY     SUNNY     68  47  46 S12       30.01F
NEBRASKA CITY  MOSUNNY   71  40  33 SW14      29.99F
PLATTSMOUTH    MOSUNNY   70  42  36 S15       29.97F
$$

NEZ044-045-051>053-067-192100-
OMAHA AREA

CITY           SKY/WX    TMP DP  RH WIND       PRES   REMARKS
OMAHA EPPLEY   PTSUNNY   71  45  39 SW14      29.96F
BLAIR          PTSUNNY   72  46  39 SW15G22   29.95F
FREMONT        MOSUNNY   73  46  38 SW15      29.94F
MILLARD        PTSUNNY   71  48  43 SW8G16    29.95F
OFFUTT AFB     PTSUNNY   72  49  44 S12G18    29.95F
PLATTSMOUTH    MOSUNNY   70  42  36 S15       29.97F
WAHOO          FAIR      73  42  32 SW14G21   29.95F
$$



USA.gov is the U.S. government's official web portal to all federal, state and local government web resources and services.